Location: Dompnac
(44.5644°N, 4.1026°E)
Time: 11:41:49
(UTC+00:00)

NOSS 2-2 (D) - Pass Details

Date: 19 September 2020
Orbit: 469 x 1739 km, 63.3° (Epoch: 23 October)

Event Time Altitude Azimuth Distance (km) Brightness Sun altitude
Rises 18:34:02 0° 205° (SSW) 2,525 6.9 -9.3°
Reaches altitude 10° 18:36:09 10° 200° (SSW) 1,624 5.8 -9.7°
Maximum altitude 18:39:33 54° 123° (ESE) 588 3.1 -10.3°
Drops below altitude 10° 18:43:13 10° 45° (NE) 1,755 5.6 -10.9°
Sets 18:45:35 0° 41° (NE) 2,757 6.6 -11.3°
